• Join FlightAware (Why Join?)
  • Login
  • US Flag 
04:03AM EST


 

Airport Tracker/Info


-or-


 

Live Flight TrackerFlight Track Log ✈ EJA396 ✈ 28-Sep-2013 ✈ KHLG - KBNA

Flight Track Log - Related Links

Times and Time Zones

All times are in EDT time to prevent confusion due to time zone crossing. See the EJA396 flight status page for this flight to view local times or setup timezone preferences in your user account.

Time Position Orientation Groundspeed Altitude Reporting Facility
EDT Latitude Longitude Course Direction KTS MPH feet Rate Location/Type
06:47PM 40.1194 -80.7047 220° Southwest 221 254 4,700  Level Cleveland Center
06:48PM 40.0497 -80.7792 219° Southwest 267 307 9,000 2,880 Climbing Cleveland Center
06:49PM 39.9814 -80.8431 216° Southwest 300 345 10,700 3,180 Climbing Cleveland Center
06:50PM 39.9094 -80.9036 213° Southwest 308 354 15,600 4,500 Climbing Cleveland Center
06:51PM 39.8425 -80.9606 213° Southwest 291 335 20,000 3,780 Climbing Cleveland Center
06:52PM 39.7744 -81.0186 213° Southwest 295 339 23,400 3,240 Climbing Cleveland Center
06:53PM 39.7036 -81.0792 213° Southwest 303 349 26,700 2,880 Climbing Cleveland Center
06:54PM 39.6306 -81.1408 213° Southwest 312 359 29,400 1,620 Climbing Cleveland Center
06:55PM 39.5461 -81.2131 213° Southwest 361 415 30,000 960 Climbing Cleveland Center
06:56PM 39.4189 -81.3197 213° Southwest 441 507 31,500 1,440 Climbing Indianapolis Center
06:57PM 39.3122 -81.4083 213° Southwest 454 522 33,200 1,620 Climbing Indianapolis Center
06:58PM 39.2128 -81.5097 218° Southwest 462 532 34,900 1,320 Climbing Indianapolis Center
06:59PM 39.1392 -81.6372 233° Southwest 446 513 36,000 540 Climbing Indianapolis Center
07:00PM 39.0619 -81.7736 234° Southwest 470 541 36,000  Level Indianapolis Center
07:01PM 38.9667 -81.9411 234° Southwest 487 560 36,000  Level Indianapolis Center
07:02PM 38.8864 -82.0797 233° Southwest 487 560 36,000  Level Indianapolis Center
07:03PM 38.8064 -82.2186 234° Southwest 488 562 36,000  Level Indianapolis Center
07:04PM 38.7267 -82.3575 234° Southwest 486 559 36,000  Level Indianapolis Center
07:05PM 38.6425 -82.5011 233° Southwest 482 555 36,000  Level Indianapolis Center
07:06PM 38.5703 -82.6264 234° Southwest 443 510 36,000  Level Indianapolis Center
07:07PM 38.4994 -82.7389 231° Southwest 412 474 36,000  Level Indianapolis Center
07:08PM 38.4231 -82.8603 231° Southwest 434 499 36,000  Level Indianapolis Center
07:09PM 38.3467 -82.9800 231° Southwest 436 502 36,000  Level Indianapolis Center
07:10PM 38.2717 -83.0986 231° Southwest 432 497 36,000  Level Indianapolis Center
07:11PM 38.1956 -83.2181 231° Southwest 433 498 36,000  Level Indianapolis Center
07:12PM 38.1086 -83.3536 231° Southwest 426 490 36,000  Level Indianapolis Center
07:14PM 38.0344 -83.4703 231° Southwest 425 489 36,000  Level Indianapolis Center
07:15PM 37.9589 -83.5839 230° Southwest 421 484 36,000  Level Indianapolis Center
07:16PM 37.8842 -83.6994 231° Southwest 424 488 36,000  Level Indianapolis Center
07:17PM 37.8114 -83.8139 231° Southwest 420 483 36,000  Level Indianapolis Center
07:18PM 37.7372 -83.9264 230° Southwest 418 481 36,000 -600 Level Indianapolis Center
07:19PM 37.6628 -84.0400 230° Southwest 420 483 34,800 -1,680 Descending Indianapolis Center
07:20PM 37.5911 -84.1506 231° Southwest 411 473 32,700 -1,380 Descending Indianapolis Center
07:21PM 37.5197 -84.2586 230° Southwest 404 465 32,000 -360 Descending Indianapolis Center
07:22PM 37.4456 -84.3694 230° Southwest 410 472 32,000  Level Indianapolis Center
07:23PM 37.3608 -84.4975 230° Southwest 408 470 32,000 -240 Level Indianapolis Center
07:24PM 37.2850 -84.6086 229° Southwest 416 479 31,600 -720 Descending Indianapolis Center
07:25PM 37.2136 -84.7192 231° Southwest 411 473 30,600 -1,020 Descending Indianapolis Center
07:26PM 37.1392 -84.8292 230° Southwest 413 475 29,600 -1,020 Descending Indianapolis Center
07:27PM 37.0664 -84.9372 230° Southwest 408 470 28,600 -1,080 Descending Indianapolis Center
07:28PM 36.9953 -85.0433 230° Southwest 403 464 27,500 -1,380 Descending Indianapolis Center
07:29PM 36.9217 -85.1514 230° Southwest 407 468 25,900 -1,680 Descending Indianapolis Center
07:30PM 36.8483 -85.2597 230° Southwest 408 470 24,200 -1,620 Descending Indianapolis Center
07:31PM 36.7761 -85.3653 230° Southwest 403 464 22,700 -1,260 Descending Indianapolis Center
07:32PM 36.7150 -85.4769 236° Southwest 395 455 21,700 -840 Descending Indianapolis Center
07:33PM 36.6572 -85.5994 240° Southwest 408 470 21,100 -1,140 Descending Indianapolis Center
07:34PM 36.6011 -85.7150 239° Southwest 391 450 19,400 -2,040 Descending Indianapolis Center
07:35PM 36.5469 -85.8311 240° Southwest 377 434 17,000 -2,400 Descending Indianapolis Center
07:36PM 36.4933 -85.9447 240° Southwest 378 435 14,600 -2,400 Descending Indianapolis Center
07:37PM 36.4408 -86.0528 239° Southwest 363 418 12,200 -2,580 Descending Indianapolis Center
07:38PM 36.3897 -86.1744 242° Southwest 351 404 9,500 -2,460 Descending Indianapolis Center
07:38PM 36.3742 -86.2142 244° Southwest 347 399 8,500 -2,280 Descending Memphis Center
07:39PM 36.3375 -86.3025 243° Southwest 298 343 6,100 -1,680 Descending Memphis Center
07:40PM 36.3056 -86.3825 244° Southwest 267 307 5,100 -1,140 Descending Memphis Center
07:41PM 36.2706 -86.4653 242° Southwest 266 306 3,900 -1,380 Descending Memphis Center
07:42PM 36.2392 -86.5431 243° Southwest 253 291 2,300 -960 Descending Memphis Center
07:43PM 36.2158 -86.5992 243° Southwest 188 216 2,000 -300 Descending Memphis Center
07:44PM 36.1861 -86.6375 226° Southwest 167 192 1,700 -480 Descending Memphis Center
07:45PM 36.1544 -86.6511 199° South 133 153 1,100 -540 Descending Memphis Center
07:46PM 36.1281 -86.6619 198° South 119 137 700 -420 Descending Memphis Center